"Pseudo-MPEC" for C2YNJP2

Created 2020 Aug 13 16:07:06 UT using Find_Orb

Click here for an explanation of pseudo-MPECs

 
 Astrometry: 
     C2YNJP2  C2020 07 31.17171 15 30 27.90 +20 25 25.5    ~7V4q 19.2 GVNEOCPG96
     C2YNJP2  C2020 07 31.17694 15 30 31.58 +20 23 18.9    ~7V4q 19.3 GVNEOCPG96
     C2YNJP2  C2020 07 31.18217 15 30 35.38 +20 21 09.3    ~7V4q       VNEOCPG96
     C2YNJP2  C2020 07 31.22818 15 31 11.81 +20 01 24.3    ~7V67 19.0 GVNEOCPI52
     C2YNJP2  C2020 07 31.22969 15 31 13.12 +20 00 44.1    ~7V67 18.5 GVNEOCPI52
     C2YNJP2  C2020 07 31.23120 15 31 13.90 +20 00 19.8    ~7V67 18.7 GVNEOCPI52
     C2YNJP2  C2020 07 31.23271 15 31 15.77 +19 59 23.2    ~7V67 18.9 GVNEOCPI52

Station data:
(G96) Mt. Lemmon Survey  (N32.442754 W110.788720)  US/Arizona.  Observers T.
   A. Pruyne, B. M. Africano, E. J. Christensen, G. A. Farneth, D. C. Fuls,
   A. R. Gibbs, A. D. Grauer, H. Gröller, J. A. Johnson, R. A. Kowalski, S.
   M. Larson, G. J. Leonard, D. Rankin, R. L. Seaman, F. C. Shelly. 1.5-m
   reflector + 10K CCD.
(I52) Steward Observatory, Mt. Lemmon Station  (N32.442547 W110.788920)
   US/Arizona.  Observers T. A. Pruyne, B. M. Africano, E. J. Christensen, G.
   A. Farneth, D. C. Fuls, A. R. Gibbs, A. D. Grauer, H. Gröller, J. A.
   Johnson, R. A. Kowalski, S. M. Larson, G. J. Leonard, D. Rankin, R. L.
   Seaman, F. C. Shelly. 1.0-m reflector + CCD.

Orbital elements:  C2YNJP2
   Perigee 2020 Aug 2.135983 TT =  3:15:49 (JD 2459063.635983)
Epoch 2020 Jul 31.0 TT = JDT 2459061.5                        AutoNEOCP
q213049.582km                       (J2000 equator)
H   27.7  G 0.15   Peri.  232.79346
                   Node    68.24252
e  11.1473053      Incl.   54.61236
From 7 observations 2020 July 31 (87.8 min); mean residual 4".13
Residuals in arcseconds: 
200731 G96  .44-  .72-    200731 I52  2.0+  3.9-    200731 I52  1.9+  4.4-    
200731 G96  .20-  .64+    200731 I52  1.9+  4.0-    
200731 G96  .76+  .08+    200731 I52  5.7- 11.9+    

Ephemerides (geocentric):
Date (UTC) HH   RA              Dec         delta   r     elong  mag
---- -- -- --  -------------   -----------  ------ ------ -----  ---
2020 08 13 16  03 03 30.478   -27 58 52.50  .02926 1.0202 103.3 22.7
2020 08 13 17  03 03 32.007   -27 58 25.41  .02936 1.0202 103.3 22.7
2020 08 13 18  03 03 33.519   -27 57 58.54  .02947 1.0203 103.3 22.7
2020 08 13 19  03 03 35.014   -27 57 31.88  .02957 1.0203 103.4 22.7
2020 08 13 20  03 03 36.492   -27 57 05.42  .02967 1.0203 103.4 22.7
2020 08 13 21  03 03 37.954   -27 56 39.18  .02978 1.0203 103.4 22.7
2020 08 13 22  03 03 39.400   -27 56 13.14  .02988 1.0204 103.4 22.7
2020 08 13 23  03 03 40.830   -27 55 47.30  .02998 1.0204 103.5 22.7
2020 08 14 00  03 03 42.244   -27 55 21.66  .03009 1.0204 103.5 22.7
2020 08 14 01  03 03 43.642   -27 54 56.23  .03019 1.0205 103.5 22.7
2020 08 14 02  03 03 45.024   -27 54 30.99  .03029 1.0205 103.5 22.7
2020 08 14 03  03 03 46.390   -27 54 05.94  .03040 1.0205 103.5 22.8
2020 08 14 04  03 03 47.741   -27 53 41.09  .03050 1.0206 103.6 22.8
2020 08 14 05  03 03 49.077   -27 53 16.43  .03060 1.0206 103.6 22.8
2020 08 14 06  03 03 50.397   -27 52 51.96  .03070 1.0206 103.6 22.8
2020 08 14 07  03 03 51.703   -27 52 27.67  .03081 1.0207 103.6 22.8
2020 08 14 08  03 03 52.993   -27 52 03.57  .03091 1.0207 103.7 22.8
2020 08 14 09  03 03 54.268   -27 51 39.66  .03101 1.0207 103.7 22.8
2020 08 14 10  03 03 55.529   -27 51 15.92  .03112 1.0208 103.7 22.8
2020 08 14 11  03 03 56.775   -27 50 52.37  .03122 1.0208 103.7 22.8
2020 08 14 12  03 03 58.006   -27 50 28.99  .03132 1.0208 103.7 22.8
2020 08 14 13  03 03 59.223   -27 50 05.79  .03142 1.0209 103.8 22.8
2020 08 14 14  03 04 00.426   -27 49 42.77  .03153 1.0209 103.8 22.8
2020 08 14 15  03 04 01.614   -27 49 19.92  .03163 1.0209 103.8 22.8
2020 08 14 16  03 04 02.788   -27 48 57.24  .03173 1.0209 103.8 22.8
2020 08 14 17  03 04 03.948   -27 48 34.72  .03184 1.0210 103.9 22.8
2020 08 14 18  03 04 05.095   -27 48 12.38  .03194 1.0210 103.9 22.8
2020 08 14 19  03 04 06.227   -27 47 50.21  .03204 1.0210 103.9 22.9
2020 08 14 20  03 04 07.346   -27 47 28.19  .03214 1.0211 103.9 22.9
2020 08 14 21  03 04 08.451   -27 47 06.35  .03225 1.0211 104.0 22.9
2020 08 14 22  03 04 09.542   -27 46 44.66  .03235 1.0211 104.0 22.9
2020 08 14 23  03 04 10.620   -27 46 23.13  .03245 1.0212 104.0 22.9
2020 08 15 00  03 04 11.685   -27 46 01.76  .03255 1.0212 104.0 22.9
2020 08 15 01  03 04 12.737   -27 45 40.55  .03266 1.0212 104.1 22.9
2020 08 15 02  03 04 13.775   -27 45 19.50  .03276 1.0213 104.1 22.9
2020 08 15 03  03 04 14.800   -27 44 58.60  .03286 1.0213 104.1 22.9
2020 08 15 04  03 04 15.812   -27 44 37.85  .03297 1.0214 104.1 22.9
2020 08 15 05  03 04 16.812   -27 44 17.25  .03307 1.0214 104.2 22.9
2020 08 15 06  03 04 17.798   -27 43 56.80  .03317 1.0214 104.2 22.9
2020 08 15 07  03 04 18.772   -27 43 36.50  .03327 1.0215 104.2 22.9
2020 08 15 08  03 04 19.734   -27 43 16.35  .03338 1.0215 104.2 22.9
2020 08 15 09  03 04 20.682   -27 42 56.34  .03348 1.0215 104.2 22.9
2020 08 15 10  03 04 21.619   -27 42 36.48  .03358 1.0216 104.3 22.9
2020 08 15 11  03 04 22.542   -27 42 16.76  .03368 1.0216 104.3 22.9
2020 08 15 12  03 04 23.454   -27 41 57.18  .03379 1.0216 104.3 23.0
2020 08 15 13  03 04 24.353   -27 41 37.74  .03389 1.0217 104.3 23.0
2020 08 15 14  03 04 25.240   -27 41 18.44  .03399 1.0217 104.4 23.0
2020 08 15 15  03 04 26.116   -27 40 59.28  .03409 1.0217 104.4 23.0